Flag for U.S.A. Weather past 2 weeks in San Angelo, Texas, U.S.A.

Now
56 °F

Clear.


Feels Like: 55 °F
Forecast: 54 / 83 °F
Wind: 5 mph from Northeast

Location: Mathis Field

Current Time: Mar 30, 2015 at 8:04:50 AM

Latest Report: Mar 30, 2015 at 6:51 AM


Visibility: 10 mi

Pressure: 30.08 "Hg

Humidity: 70%

Dew point: 46 °F

Location of San AngeloLocation

Historic Weather in San Angelo — Graph

°F

San Angelo temperature yesterday

Maximum temperature yesterday: 92 °F (at 4:51 PM)
Minimum temperature yesterday: 51 °F (at 7:51 AM)
Average temperature yesterday: 73 °F

Past Weeks' High & Low Weather Summary

 TemperatureHumidityPressure
High92 °F (Mar 29, 4:51 PM)97% (Mar 19, 3:51 AM)30.36 "Hg (Mar 19, 3:51 AM)
Low36 °F (Mar 15, 6:51 AM)16% (Mar 29, 4:51 PM)29.72 "Hg (Mar 25, 5:51 PM)
Average63 °F64%30.04 "Hg
* Reported Mar 15 6:51 AM — Mar 30 6:51 AM, San Angelo, Weather by CustomWeather, © 2015

Note: Actual official high and low records may vary slightly from our data, if they occured in-between our weather recording intervals... More about our weather records

Advertising

San Angelo weather history for previous 24 hours

 ConditionsComfort  
Time TempWeatherWind HumidityBarometerVisibility
6:51 AM
Mon, Mar 30
56 °FClear.5 mph70%30.08 "Hg10 mi
5:51 AM57 °FClear.5 mph67%30.06 "Hg10 mi
4:51 AM59 °FClear.5 mph62%30.05 "Hg10 mi
3:51 AM59 °FClear.7 mph64%30.06 "Hg10 mi
2:51 AM60 °FClear.8 mph65%30.06 "Hg10 mi
1:51 AM63 °FClear.3 mph63%30.08 "Hg10 mi
12:51 AM63 °FClear.3 mph56%30.08 "Hg10 mi
11:51 PM
Sun, Mar 29
61 °FClear.No wind60%30.09 "Hg10 mi
10:51 PM68 °FClear.5 mph47%30.07 "Hg10 mi
9:51 PM73 °FClear.15 mph38%30.04 "Hg10 mi
8:51 PM77 °FSunny.18 mph36%30.00 "Hg10 mi
7:51 PM84 °FSunny.23 mph22%29.94 "Hg10 mi
6:51 PM89 °FSunny.9 mph21%29.88 "Hg10 mi
5:51 PM91 °FSunny.10 mph17%29.87 "Hg10 mi
4:51 PM92 °FSunny.12 mph16%29.87 "Hg10 mi
3:51 PM91 °FSunny.14 mph20%29.89 "Hg10 mi
2:51 PM90 °FSunny.9 mph21%29.90 "Hg10 mi
1:51 PM86 °FSunny.17 mph26%29.93 "Hg10 mi
12:51 PM83 °FSunny.15 mph30%29.96 "Hg10 mi
11:51 AM79 °FSunny.17 mph35%29.99 "Hg10 mi
10:51 AM74 °FSunny.17 mph43%29.98 "Hg10 mi
9:51 AM68 °FSunny.15 mph51%29.98 "Hg10 mi
8:51 AM61 °FSunny.7 mph60%29.98 "Hg10 mi
Weather by CustomWeather, © 2015

See weather overviewHow to use our weather pages